Location: Castillon
(43.0896°N, 0.2156°E)
Time: 17:04:33
(UTC+00:00)

Cosmos 1626 - Pass Details

Date: 16 June 2021
Orbit: 488 x 493 km, 82.5° (Epoch: 03 August)

Event Time Altitude Azimuth Distance (km) Brightness Sun altitude
Exits shadow 21:27:25 29° 154° (SSE) 936 2.9 -14.8°
Maximum altitude 21:28:59 50° 94° (E) 636 2.3 -15.0°
Drops below altitude 10° 21:32:35 10° 19° (NNE) 1,695 5.3 -15.4°
Sets 21:34:44 0° 14° (NNE) 2,583 6.4 -15.6°
